Location: Bas-Clignon
(44.2000°N, 6.6333°E)
Time: 12:48:00
(UTC+00:00)

CSL-04 Rocket - Pass Details

Date: 03 February 2023
Orbit: 806 x 859 km, 98.8° (Epoch: 20 March)

Event Time Altitude Azimuth Distance (km) Brightness Sun altitude
Exits shadow 18:47:13 43° 54° (NE) 1,149 4.0 -22.0°
Drops below altitude 10° 18:51:51 10° 358° (N) 2,443 6.1 -22.8°
Sets 18:54:19 0° 352° (N) 3,389 6.9 -23.3°
